Temperature
14 14 15 14 14 14 15 15 15 15 15 15 15 15 15 15 15 15 15 15 15 14 14 14 14 14 14 14 14 13 13 13 13 13 13 13 13 12 12 12 12 12 12
14 14 14 14 14 14 14 14 15 15 15 15 15 15 15 15 15 15 15 15 15 14 14 14 14 14 14 14 13 13 13 13 13 13 13 13 12 12 12 12 12 12 11
14 14 14 14 14 14 14 14 14 14 14 14 14 14 15 15 15 14 14 14 14 14 14 14 14 14 14 13 13 13 13 13 13 13 12 12 12 12 12 12 12 11 11
14 14 14 14 14 14 14 14 14 14 14 14 14 14 14 14 14 14 14 14 14 14 14 14 14 14 13 13 13 13 13 13 13 12 12 12 12 12 12 11 11 11 11
14 13 14 14 14 14 14 14 14 14 14 14 14 14 14 14 14 14 14 14 14 14 14 14 14 14 13 13 13 13 13 13 13 12 12 12 12 12 11 11 11 11 10
13 13 13 13 13 13 13 13 13 13 14 14 13 13 13 14 13 14 14 14 13 13 13 13 13 13 13 13 13 13 13 13 12 12 12 12 12 11 11 11 11 10 10
13 13 13 13 13 13 13 13 13 13 13 13 13 12 13 13 13 13 13 13 13 13 13 13 13 13 13 13 13 13 13 12 12 12 12 12 11 11 11 11 11 10 10
12 12 12 12 12 12 12 13 13 12 12 12 12 12 11 12 12 13 13 13 13 13 13 13 13 13 13 13 13 12 12 12 12 12 11 11 11 11 11 11 10 10 10
12 12 12 12 12 12 12 12 12 12 12 12 12 12 11 11 11 12 12 12 13 13 13 13 13 13 12 12 12 12 12 12 11 11 11 11 11 11 11 10 10 10 10
11 12 12 12 12 12 12 12 12 12 12 12 11 11 12 12 11 11 12 12 12 12 12 12 12 12 12 12 12 12 11 11 11 11 11 11 10 10 10 10 10 10 9
11 11 11 11 12 12 12 12 11 11 11 11 11 11 11 11 11 11 11 11 11 11 11 11 11 11 11 11 11 11 11 11 10 10 10 10 10 10 10 10 9 9 9
10 11 11 11 11 11 11 11 11 11 11 11 11 11 11 11 11 11 11 11 11 11 11 11 11 11 11 11 11 11 10 10 10 10 10 9 9 9 9 9 9 9 9
10 10 10 10 11 11 11 11 11 11 11 11 11 11 10 10 11 11 10 10 10 10 10 10 10 10 10 10 10 10 10 10 10 9 9 9 9 9 9 9 9 8 8
10 10 10 10 10 10 10 10 10 10 10 10 10 10 10 10 10 10 10 10 9 9 9 10 10 10 10 10 10 9 9 9 9 9 9 9 8 8 8 8 8 8 8
9 9 9 9 10 10 10 10 10 10 9 9 9 9 9 9 9 10 10 10 9 8 9 9 9 9 9 9 9 9 9 9 9 8 8 8 8 8 8 8 8 7 7
9 9 9 9 9 9 9 9 9 9 9 9 9 9 9 9 9 9 9 9 9 9 8 9 9 9 9 8 8 8 8 8 8 8 8 8 7 7 7 7 7 7 7
8 8 8 9 9 9 9 9 8 8 8 8 8 8 8 8 8 8 8 8 8 8 8 8 8 8 8 8 7 7 7 7 7 7 7 7 7 7 7 7 7 6 6
8 8 8 8 8 8 8 8 8 8 8 8 8 8 8 8 8 8 8 8 8 7 7 8 8 8 7 7 7 7 7 7 6 6 6 6 6 6 6 6 6 6 6
7 7 7 7 7 7 7 7 7 7 7 7 7 7 7 7 7 7 7 7 7 7 7 7 7 7 7 6 6 6 6 6 6 6 6 6 5 5 5 5 5 5 5
6 6 6 7 7 7 6 6 6 6 6 7 7 7 7 6 7 7 7 7 7 7 6 6 6 6 6 6 6 6 6 5 5 5 5 5 5 5 5 5 4 4 4
5 6 6 6 6 6 6 6 6 6 6 6 6 6 6 6 6 6 6 6 6 6 6 6 5 5 5 5 5 5 5 5 5 4 4 4 4 4 4 4 4 4 4
5 5 5 5 5 5 5 5 5 5 5 5 5 5 5 5 5 6 5 6 6 6 5 5 5 5 5 5 5 5 5 4 4 4 4 4 4 4 3 3 3 3 3
4 4 5 5 5 5 5 5 5 5 5 5 4 5 5 5 5 5 5 5 5 5 5 5 5 5 5 5 5 4 4 4 4 4 4 3 3 3 3 3 3 3 3
4 4 4 4 4 4 4 4 4 4 4 4 4 4 4 4 4 4 4 4 4 4 4 4 4 4 4 4 4 4 4 3 3 3 3 3 3 2 2 2 2 2 2
3 3 3 3 3 3 3 3 3 3 3 3 3 3 3 3 3 3 3 3 3 3 4 4 4 3 3 3 3 3 3 2 2 2 2 2 2 2 2 2 2 2 1
3 3 3 3 3 2 2 2 2 2 2 2 2 2 2 2 2 2 3 3 3 3 3 3 3 3 3 3 3 3 2 2 2 2 2 1 1 1 1 1 1 1 1
Wind_Speed
8 7 7 8 9 10 9 8 7 7 6 7 7 8 7 8 9 9 10 11 11 11 10 10 10 10 9 9 8 8 7 7 7 6 6 6 6 6 6 6 7 7 7
8 8 7 7 8 10 10 9 8 6 5 5 5 6 7 8 9 10 10 11 11 11 11 11 11 11 11 10 10 9 8 8 8 7 7 7 7 7 7 8 8 8 8
9 8 8 7 8 10 10 8 6 5 4 4 4 5 6 7 8 9 10 10 10 11 12 12 12 12 12 11 11 10 9 9 9 8 8 8 8 8 8 9 9 8 8
11 8 8 8 9 9 8 7 6 5 5 5 4 4 3 4 6 8 9 9 10 10 11 12 12 12 12 12 12 11 10 9 8 8 9 9 9 9 9 9 9 8 8
11 9 8 7 10 8 7 8 6 6 6 5 4 3 3 4 4 6 6 8 10 10 10 11 12 12 12 12 12 11 10 9 9 9 9 10 10 10 10 10 9 9 9
9 9 7 8 9 7 7 7 7 6 6 6 4 3 3 4 4 4 5 6 8 9 9 9 9 9 11 11 12 12 11 10 10 10 10 10 11 11 11 11 10 9 8
8 8 7 8 9 9 9 9 6 7 5 4 3 1 2 2 4 4 4 4 5 7 8 8 8 8 7 9 10 11 11 10 10 10 10 10 11 11 11 11 10 9 8
8 7 8 9 9 8 9 9 7 6 4 5 4 3 1 2 3 4 4 5 5 5 5 7 8 8 7 7 8 9 10 11 11 12 11 11 11 12 12 11 10 9 8
8 8 8 8 9 9 9 10 10 9 7 5 4 4 3 4 2 3 5 5 5 5 5 5 7 8 8 7 7 8 9 9 10 11 12 12 11 11 11 10 9 8 7
7 8 9 9 9 9 9 9 9 8 9 8 5 4 3 3 3 2 3 4 5 5 5 5 5 7 8 8 8 9 9 9 11 11 11 11 11 10 10 9 9 8 7
6 7 8 9 9 8 9 9 9 8 7 7 6 4 3 2 3 3 4 4 3 5 5 5 5 6 8 8 8 9 10 10 11 11 11 11 10 9 9 9 8 8 7
4 6 7 7 7 7 9 9 9 10 9 8 5 5 4 4 4 3 4 5 5 4 5 5 6 6 7 8 9 10 11 11 11 11 11 10 10 9 8 8 8 7 7
4 5 6 7 7 7 7 8 8 8 8 9 8 6 5 5 4 4 4 5 5 4 3 4 6 6 7 8 9 11 11 10 9 10 10 10 9 8 7 8 8 7 6
3 4 5 6 6 6 6 6 6 7 6 7 8 7 6 6 5 5 5 5 5 5 5 6 4 6 7 9 10 11 9 10 10 10 9 8 7 6 6 7 6 6 5
1 3 3 4 4 4 6 6 5 6 6 6 7 8 7 6 6 6 6 6 7 8 10 7 4 5 7 8 10 9 8 10 10 9 8 8 7 6 6 6 5 4 4
1 2 2 3 4 4 5 5 4 5 6 6 5 6 7 6 5 5 6 6 6 8 9 6 5 4 6 6 9 9 9 10 10 10 9 8 7 6 5 5 5 4 4
1 0 1 2 3 4 4 4 4 4 6 6 5 6 8 7 6 6 5 5 6 6 8 6 3 3 4 6 5 6 7 7 8 10 9 8 7 6 5 6 6 4 3
2 1 1 0 1 2 4 5 4 5 6 7 6 6 7 6 7 6 6 6 6 6 6 8 5 3 5 6 6 5 5 6 6 9 9 9 8 7 6 5 5 4 4
2 2 2 1 1 2 3 4 4 5 6 7 7 7 7 6 8 6 6 7 6 5 5 6 6 3 3 3 3 3 3 3 4 7 8 8 8 7 6 6 5 5 5
2 1 1 1 2 2 3 3 3 4 5 5 6 6 6 7 8 8 7 7 6 6 5 5 5 4 3 2 3 3 3 3 3 4 5 6 6 7 7 6 6 5 5
3 2 1 1 1 2 2 2 3 4 4 5 5 5 6 7 8 8 7 7 6 6 5 5 5 4 4 3 5 4 4 2 3 3 2 3 3 3 4 5 5 5 5
4 3 2 1 2 2 3 4 3 3 3 4 4 4 5 5 6 7 8 8 7 7 7 6 6 6 6 5 4 4 3 3 4 3 3 2 2 2 2 3 5 5 5
4 3 2 2 2 3 5 4 4 2 2 3 4 4 4 4 5 4 5 5 6 8 8 8 7 7 7 7 6 5 5 4 3 4 3 2 2 2 1 3 4 5 5
4 3 3 3 3 4 6 5 5 2 3 3 4 4 4 4 4 4 3 3 4 4 5 5 6 6 6 6 7 6 5 3 3 1 2 2 2 1 1 1 3 5 5
5 4 4 4 3 4 5 6 5 2 2 3 3 3 3 4 5 5 3 3 3 4 3 2 2 3 4 6 6 5 4 4 2 1 1 2 2 1 0 0 1 2 3
4 4 4 4 3 4 5 6 6 2 2 3 3 3 4 4 5 5 3 2 3 3 2 2 2 1 1 4 6 5 6 4 2 2 2 3 2 2 1 0 1 1 1
Wind_Direction
174 172 173 175 176 172 170 167 166 167 169 174 183 186 193 199 203 209 215 216 217 217 217 218 219 219 219 222 226 225 227 232 237 239 244 251 256 264 273 280 283 282 284
173 175 176 177 178 177 175 173 172 173 176 181 193 198 201 204 209 213 217 219 220 223 224 226 227 228 230 233 234 233 233 235 239 243 248 251 255 259 266 273 277 277 279
175 176 179 182 182 179 174 170 169 170 178 188 201 203 203 208 211 215 217 220 223 227 230 233 234 236 238 240 240 239 238 239 242 245 249 253 256 260 266 271 274 274 276
179 177 182 186 180 176 177 178 176 179 188 192 201 209 210 210 214 216 218 221 223 227 230 234 237 240 242 242 243 242 242 240 239 242 247 252 257 260 265 269 273 275 275
184 182 186 185 179 178 183 184 184 181 188 195 202 209 212 214 216 213 216 221 223 225 228 233 235 238 240 242 243 244 245 245 245 246 251 254 259 263 265 269 271 273 275
187 183 188 183 179 183 187 187 188 186 187 188 194 210 224 225 218 217 218 218 220 224 225 228 230 233 235 236 240 243 245 246 250 254 258 259 262 264 266 267 269 272 271
186 187 192 186 184 191 193 186 183 184 187 166 156 213 281 235 225 225 214 210 215 220 220 221 224 226 230 234 239 242 245 249 254 258 262 262 264 265 266 266 267 267 268
190 195 194 193 191 192 193 189 177 179 184 176 168 160 223 275 245 225 216 216 219 209 214 221 221 224 225 226 232 239 246 252 257 259 263 265 266 266 267 266 265 264 267
196 196 194 197 195 194 196 196 189 186 188 191 183 169 178 219 247 230 222 221 216 212 217 215 219 226 225 223 226 234 239 248 257 262 263 264 267 268 269 266 263 262 268
203 203 196 196 198 196 195 196 194 195 187 193 200 209 196 172 196 236 232 220 217 219 219 221 217 220 224 222 226 232 237 244 254 262 266 268 268 269 269 264 261 263 266
203 205 201 196 196 198 196 196 197 196 196 199 198 198 205 213 203 214 246 237 236 229 223 218 211 214 219 220 224 233 238 244 253 259 263 267 269 268 268 265 263 265 267
199 202 201 198 197 200 199 197 196 198 201 203 205 203 200 200 204 213 235 237 247 244 228 219 216 213 217 217 225 233 236 241 248 254 258 263 265 268 270 266 263 264 266
202 202 200 199 197 199 198 194 193 201 205 204 206 216 219 224 217 222 232 245 258 263 242 226 217 209 217 216 222 228 231 232 236 245 254 259 261 263 269 268 262 264 272
200 193 198 201 198 196 197 193 194 200 208 213 214 217 228 231 226 223 223 233 257 264 252 242 219 210 213 215 220 222 224 225 227 235 243 249 249 247 254 259 261 261 272
184 183 194 200 199 198 199 194 199 204 207 217 220 221 229 236 232 232 224 218 228 251 254 241 225 211 210 214 219 215 218 223 224 227 228 230 228 228 234 241 254 266 266
142 178 206 208 197 202 203 196 201 206 211 220 229 228 233 237 235 235 232 234 231 237 254 249 236 223 208 216 221 215 218 223 223 221 219 216 212 216 224 229 238 248 258
74 113 204 213 210 203 204 199 205 212 222 228 230 234 238 234 232 232 231 233 238 239 254 266 252 236 214 214 217 212 216 214 218 216 215 211 209 208 211 216 215 221 226
31 357 4 301 254 222 213 206 211 219 227 232 233 236 243 243 238 236 232 235 240 241 247 260 263 241 233 221 211 207 212 211 208 211 211 210 209 210 210 212 210 209 208
19 3 1 339 292 253 232 223 217 223 227 232 232 235 244 246 244 246 241 237 240 245 246 250 258 253 249 227 217 216 210 214 214 212 209 211 213 215 212 207 204 205 207
8 336 287 273 260 246 234 238 235 237 238 243 242 241 245 247 246 243 241 239 240 240 240 240 249 247 245 228 209 218 227 219 223 213 206 212 210 209 210 204 194 193 201
356 323 295 294 273 246 241 261 255 247 245 255 257 252 250 253 257 248 246 240 233 236 235 236 244 241 232 218 220 209 222 216 230 204 188 208 200 195 202 195 185 190 198
1 356 353 340 323 313 315 312 291 245 252 263 272 270 267 256 271 264 257 251 240 232 231 233 240 234 232 227 217 208 200 213 228 196 181 196 167 183 191 195 189 197 200
359 356 356 356 338 325 335 328 313 282 259 262 268 277 288 288 293 272 263 269 261 254 242 230 233 234 225 216 201 203 208 221 213 175 163 176 153 189 195 205 198 200 198
351 352 351 345 335 329 334 331 334 310 270 267 262 261 270 278 285 294 292 285 281 275 263 247 233 236 231 210 200 200 193 153 93 104 147 163 159 182 158 211 195 194 198
349 348 347 345 336 323 330 334 337 301 288 287 284 278 276 271 298 318 316 310 319 315 318 280 254 233 205 186 168 148 151 153 166 178 161 147 147 123 114 175 215 181 187
338 339 340 338 335 324 332 342 341 308 300 302 301 293 300 304 311 323 309 294 295 302 328 8 28 51 135 159 170 175 172 169 157 173 171 146 144 131 136 19 41 40 118
Height
1510 1513 1516 1520 1523 1526 1528 1531 1534 1536 1538 1541 1543 1544 1546 1548 1549 1550 1551 1552 1553 1554 1554 1555 1555 1555 1555 1555 1555 1555 1555 1555 1554 1554 1553 1553 1552 1551 1550 1549 1548 1547 1546
1506 1509 1513 1516 1519 1522 1525 1528 1531 1534 1536 1538 1540 1542 1544 1545 1547 1548 1549 1550 1551 1551 1552 1552 1553 1553 1553 1553 1553 1553 1553 1552 1552 1552 1551 1550 1550 1549 1548 1547 1546 1544 1543
1503 1506 1509 1512 1516 1519 1522 1525 1528 1531 1533 1535 1537 1539 1541 1543 1544 1545 1546 1547 1548 1549 1549 1550 1550 1550 1550 1550 1550 1550 1550 1550 1549 1549 1548 1548 1547 1546 1545 1544 1543 1542 1541
1499 1502 1505 1508 1512 1515 1518 1521 1524 1526 1529 1532 1534 1536 1538 1539 1541 1542 1543 1544 1545 1545 1546 1546 1547 1547 1547 1547 1547 1547 1547 1547 1546 1546 1545 1544 1543 1542 1541 1540 1539 1538 1537
1494 1497 1500 1504 1507 1510 1513 1516 1519 1522 1525 1528 1530 1532 1534 1535 1537 1538 1539 1540 1541 1542 1542 1543 1543 1543 1543 1544 1544 1544 1543 1543 1542 1542 1541 1541 1540 1539 1538 1537 1536 1535 1534
1489 1493 1496 1499 1502 1505 1508 1511 1515 1518 1521 1524 1526 1528 1530 1531 1533 1534 1535 1536 1537 1537 1538 1539 1539 1539 1539 1539 1539 1539 1539 1539 1538 1538 1537 1536 1535 1534 1533 1532 1531 1531 1530
1484 1488 1491 1493 1497 1500 1503 1506 1510 1513 1516 1519 1521 1523 1525 1526 1528 1529 1530 1531 1532 1533 1534 1534 1534 1535 1534 1535 1535 1535 1534 1534 1534 1533 1533 1532 1531 1530 1529 1528 1527 1526 1526
1479 1483 1485 1488 1491 1495 1499 1502 1504 1507 1511 1514 1516 1518 1519 1521 1521 1523 1524 1525 1526 1528 1529 1529 1530 1530 1530 1530 1529 1529 1529 1529 1528 1528 1527 1527 1526 1525 1524 1523 1522 1522 1521
1474 1477 1480 1483 1486 1489 1492 1496 1499 1501 1504 1508 1511 1512 1514 1513 1515 1516 1518 1519 1521 1521 1523 1524 1524 1525 1525 1524 1524 1524 1524 1523 1523 1522 1522 1521 1521 1520 1519 1518 1517 1517 1516
1468 1472 1475 1478 1481 1484 1487 1490 1493 1496 1499 1501 1505 1507 1509 1509 1511 1510 1512 1513 1515 1515 1516 1517 1518 1518 1519 1519 1518 1518 1518 1518 1517 1516 1516 1515 1515 1514 1513 1513 1512 1511 1511
1463 1466 1469 1472 1475 1478 1481 1484 1487 1490 1493 1495 1497 1500 1502 1504 1505 1505 1505 1506 1507 1508 1509 1510 1511 1512 1512 1512 1512 1512 1512 1512 1511 1511 1510 1509 1509 1508 1508 1507 1507 1506 1505
1457 1460 1463 1467 1469 1472 1475 1478 1480 1484 1486 1489 1491 1493 1495 1497 1498 1499 1499 1499 1500 1501 1502 1503 1503 1504 1505 1505 1505 1506 1505 1505 1505 1505 1504 1503 1503 1502 1501 1501 1501 1500 1500
1452 1455 1458 1461 1464 1466 1469 1472 1474 1477 1479 1482 1484 1487 1489 1491 1493 1494 1494 1494 1493 1493 1494 1495 1496 1497 1498 1498 1498 1499 1499 1498 1498 1498 1498 1497 1496 1496 1495 1495 1495 1495 1494
1448 1450 1453 1456 1459 1461 1464 1466 1468 1471 1473 1475 1477 1480 1483 1485 1487 1488 1488 1488 1487 1486 1486 1486 1488 1489 1490 1491 1491 1491 1491 1491 1491 1491 1491 1490 1490 1490 1489 1490 1489 1489 1489
1443 1446 1449 1451 1454 1456 1459 1460 1462 1465 1468 1470 1471 1474 1476 1478 1480 1481 1481 1482 1483 1480 1477 1478 1480 1481 1483 1484 1484 1484 1484 1484 1484 1484 1483 1483 1483 1483 1483 1483 1483 1483 1483
1440 1442 1445 1447 1449 1452 1453 1455 1457 1459 1462 1463 1465 1467 1468 1470 1472 1473 1474 1475 1475 1474 1471 1470 1472 1473 1475 1475 1476 1476 1476 1476 1476 1476 1476 1476 1476 1476 1476 1477 1477 1478 1478
1437 1439 1441 1443 1445 1447 1448 1449 1451 1453 1455 1457 1458 1460 1461 1463 1464 1465 1466 1467 1467 1467 1465 1463 1465 1465 1466 1467 1468 1469 1469 1469 1469 1469 1469 1469 1470 1470 1470 1471 1472 1472 1473
1434 1436 1438 1439 1440 1442 1443 1445 1446 1448 1450 1450 1451 1453 1454 1455 1456 1458 1458 1459 1459 1459 1459 1457 1457 1457 1458 1459 1460 1461 1461 1461 1462 1462 1463 1463 1464 1464 1464 1465 1466 1467 1468
1431 1433 1434 1435 1436 1437 1438 1439 1440 1442 1443 1444 1445 1446 1447 1448 1448 1449 1450 1450 1451 1451 1452 1451 1450 1450 1451 1452 1452 1453 1454 1454 1454 1456 1456 1457 1457 1458 1459 1460 1461 1462 1464
1429 1430 1431 1431 1432 1433 1433 1434 1435 1436 1437 1438 1439 1439 1440 1441 1441 1441 1442 1442 1443 1443 1443 1443 1443 1443 1443 1444 1445 1445 1445 1446 1447 1449 1449 1450 1451 1453 1454 1455 1456 1458 1459
1426 1427 1427 1427 1428 1428 1429 1429 1430 1431 1431 1432 1432 1433 1433 1434 1434 1434 1434 1434 1435 1434 1435 1435 1435 1435 1435 1436 1437 1437 1439 1439 1440 1442 1443 1444 1446 1447 1448 1450 1451 1453 1455
1423 1423 1423 1424 1424 1424 1425 1425 1425 1426 1426 1426 1426 1426 1427 1427 1427 1427 1427 1428 1428 1427 1427 1427 1427 1427 1427 1429 1430 1431 1432 1433 1433 1436 1437 1438 1440 1442 1443 1445 1447 1449 1450
1421 1421 1420 1421 1421 1421 1421 1421 1421 1421 1421 1421 1420 1420 1420 1420 1420 1420 1420 1420 1420 1420 1421 1421 1420 1421 1422 1422 1424 1424 1426 1427 1428 1429 1431 1432 1435 1437 1439 1441 1442 1444 1446
1420 1419 1418 1418 1417 1417 1417 1417 1417 1416 1416 1416 1415 1415 1415 1414 1414 1414 1413 1413 1413 1413 1414 1415 1415 1415 1416 1417 1418 1419 1420 1421 1423 1424 1426 1427 1430 1433 1435 1436 1438 1440 1442
1419 1417 1416 1415 1414 1413 1413 1413 1413 1411 1411 1411 1411 1410 1410 1410 1409 1409 1408 1407 1406 1407 1408 1409 1409 1410 1410 1411 1412 1413 1414 1415 1416 1419 1421 1424 1426 1428 1430 1432 1434 1436 1438
1417 1416 1415 1414 1412 1411 1410 1410 1409 1407 1407 1406 1406 1406 1406 1405 1404 1403 1403 1402 1402 1402 1403 1403 1404 1404 1405 1405 1407 1408 1410 1411 1412 1414 1417 1420 1422 1424 1426 1428 1430 1432 1434